Station CAMM2 - 8571892 - Cambridge, MD Image indicating link to RSS feed of recent meteorological observations for station CAMM2


Conditions at CAMM2 as of
(4:48 am EDT)
0848 GMT on 06/17/2024:
     

Click on the graph icon in the table below to see a time series plot of the last five days of that observation.

5-day plot - Wind Direction Wind Direction (WDIR): S ( 180 deg true )
5-day plot - Wind Speed Wind Speed (WSPD): 5.1 kts
5-day plot - Wind Gust Wind Gust (GST): 7.0 kts
5-day plot - Atmospheric Pressure Atmospheric Pressure (PRES):30.20 in
5-day plot - Air Temperature Air Temperature (ATMP): 73.6 °F
5-day plot - Water Temperature Water Temperature (WTMP): 77.7 °F
5-day plot - Wind Speed at 10 Meters Wind Speed at 10 meters (WSPD10M): 5.8 kts
5-day plot - Wind Speed at 20 Meters Wind Speed at 20 meters (WSPD20M): 5.8 kts
5-day plot -  Wind Speed, Wind Gust and Atmospheric Pressure Combined plot of Wind Speed, Gust, and Air Pressure
NOS Water Level Observation Network Water Level
Previous observations
TIME
(EDT)
5-day plot - Wind Direction
WDIR
 
5-day plot - Wind Speed
WSPD
kts
5-day plot - Wind Gust
GST
kts
5-day plot - Wave Height
WVHT
ft
5-day plot - Dominant Wave Period
DPD
sec
5-day plot - Average Wave Period
APD
sec
5-day plot - Mean Wave Direction
MWD
 
5-day plot - Atmospheric Pressure
PRES
in
5-day plot - Pressure Tendency
PTDY
in
5-day plot - Air Temperature
ATMP
°F
5-day plot - Water Temperature
WTMP
°F
5-day plot - Dew Point
DEWP
°F
5-day plot - Salinity
SAL
psu
5-day plot - Visibility
VIS
nmi
5-day plot - Tide (above MLLW)
TIDE
ft
2024-06-17 04:42 am S 5.1 8.0----30.19- 73.4 77.7----
2024-06-17 04:36 am S 5.1 7.0----30.19- 73.2 77.7----
2024-06-17 04:30 am S 2.9 6.0----30.19- 72.7 77.7----
2024-06-17 04:24 amSSE 4.1 5.1----30.19- 72.3 77.7----
2024-06-17 04:18 amSSE 4.1 5.1----30.19-- 77.9----
2024-06-17 04:12 am SE 4.1 5.1----30.19- 72.1 77.9----
2024-06-17 04:06 amSSE 4.1 6.0----30.19- 72.1 77.9----
2024-06-17 04:00 amSSE 5.1 7.0----30.19-0.02 72.1 77.7----
2024-06-17 03:54 amSSE 5.1 6.0----30.19- 71.8 77.7----
2024-06-17 03:48 amSSE 4.1 6.0----30.19- 71.4 77.5----
2024-06-17 03:42 amSSE 4.1 5.1----30.19- 71.4 77.5----
2024-06-17 03:36 amSSE 5.1 6.0----30.19- 71.2 77.5----
2024-06-17 03:30 amSSE 5.1 6.0----30.19- 71.1 77.7----
2024-06-17 03:24 amSSE 5.1 6.0----30.20- 70.9 77.7----
2024-06-17 03:18 amSSE 5.1 6.0----30.20- 70.7 77.7----
2024-06-17 03:12 amSSE 5.1 5.1----30.20- 70.7 77.7----
2024-06-17 03:06 am SE 5.1 6.0----30.20- 70.7 77.7----
2024-06-17 03:00 amSSE 4.1 5.1----30.20+0.00 70.7 77.7----
2024-06-17 02:54 amSSE 4.1 6.0----30.20- 70.7 77.7----
2024-06-17 02:48 amSSE 5.1 6.0----30.20- 70.7 77.7----
2024-06-17 02:42 amSSE 5.1 6.0----30.21- 70.5 77.7----
2024-06-17 02:36 am S 5.1 7.0----30.21- 70.5 77.7----
2024-06-17 02:30 am S 5.1 7.0----30.20- 70.5 77.7----
2024-06-17 02:24 am S 5.1 7.0----30.20- 70.5 77.7----
2024-06-17 02:18 am S 6.0 8.0----30.20- 70.5 77.7----
2024-06-17 02:12 am S 5.1 8.0----30.20- 70.5 77.7----
2024-06-17 02:06 am S 6.0 7.0----30.20- 70.5 77.7----
2024-06-17 02:00 am S 5.1 6.0----30.21+0.01 70.3 77.7----
2024-06-17 01:54 am S 4.1 7.0----30.21- 70.3 77.9----
2024-06-17 01:48 am S 5.1 7.0----30.20- 70.2 77.9----
2024-06-17 01:42 amSSE 5.1 6.0----30.20- 70.2 78.1----
2024-06-17 01:36 amSSE 5.1 7.0----30.21- 70.5 78.1----
2024-06-17 01:30 amSSE 5.1 8.9----30.21- 70.5 78.1----
2024-06-17 01:24 amSSE 6.0 8.9----30.21- 70.7 78.1----
2024-06-17 01:18 am S 6.0 8.0------ 70.7 78.1----
2024-06-17 01:12 amSSE 6.0 8.9------ 70.7 78.1----
2024-06-17 01:06 am S 5.1 8.9------ 70.9 78.1----
2024-06-17 01:00 am S 7.0 8.0----30.22+0.02- 78.1----
2024-06-17 12:54 am S 6.0 7.0----30.22-- 78.1----
2024-06-17 12:48 am S 6.0 9.9----30.21-- 78.3----
2024-06-17 12:42 am S 6.0 8.0----30.21-- 78.3----
2024-06-17 12:36 am S 6.0 8.0----30.21-- 78.3----
2024-06-17 12:30 am S 5.1 6.0----30.21-- 78.3----
2024-06-17 12:24 am S 6.0 8.0----30.21-- 78.3----
2024-06-17 12:18 am S 6.0 7.0----30.21- 70.5 78.3----
2024-06-17 12:12 am S 5.1 8.0----30.21- 70.7 78.3----
2024-06-17 12:06 amSSE 5.1 8.0----30.21- 70.7 78.3----
2024-06-17 12:00 am-------30.21+0.03 70.7 78.3----
2024-06-16 11:54 pm-------30.21- 70.7 78.3----
2024-06-16 11:48 pmSSE 5.1 8.0----30.21-- 78.3----
2024-06-16 11:42 pmSSE 6.0 8.0----30.20-- 78.3----
2024-06-16 11:36 pmSSE 6.0 8.0----30.20-- 78.3----
2024-06-16 11:30 pmSSE 5.1 8.0----30.20- 71.4 78.3----
2024-06-16 11:24 pmSSE 7.0 8.9----30.20- 71.6 78.4----
2024-06-16 11:18 pmSSE 6.0 8.9----30.20- 71.6 78.4----
2024-06-16 11:12 pmSSE 7.0 9.9----30.20- 71.6 78.4----
2024-06-16 11:06 pmSSE 6.0 9.9----30.20- 71.8 78.4----
2024-06-16 11:00 pmSSE 7.0 8.9----30.19+0.01 72.1 78.4----
2024-06-16 10:54 pmSSE 7.0 11.1----30.19- 72.3 78.4----
2024-06-16 10:48 pmSSE 8.0 11.1----30.19- 72.7 78.4----
2024-06-16 10:42 pmSSE 8.0 11.1----30.19- 72.7 78.4----
2024-06-16 10:36 pmSSE 7.0 8.9----30.19- 72.9 78.4----
2024-06-16 10:30 pmSSE 7.0 9.9----30.19- 73.0 78.4----
2024-06-16 10:24 pmSSE 7.0 9.9----30.19- 73.2 78.4----
2024-06-16 10:18 pm S 8.0 9.9----30.19- 73.4 78.4----
2024-06-16 10:12 pm S 7.0 11.1----30.19- 73.6 78.4----
2024-06-16 10:06 pmSSE 8.9 13.0----30.19- 73.8 78.6----
2024-06-16 10:00 pm S 8.0 11.1----30.19+0.01 73.9 78.4----
2024-06-16 09:54 pmSSE 8.9 11.1----30.19- 74.1 78.8----
2024-06-16 09:48 pm S 8.0 11.1----30.19- 74.3 78.6----
2024-06-16 09:42 pmSSE 8.0 12.0----30.19- 74.3 78.6----
2024-06-16 09:36 pmSSE 8.0 11.1----30.19- 74.5 78.8----
2024-06-16 09:30 pmSSE 8.0 11.1------ 74.7 78.8----
2024-06-16 09:24 pmSSE 8.0 11.1------ 74.8 78.8----
2024-06-16 09:18 pmSSE 8.0 12.0------------
2024-06-16 09:12 pmSSE 8.0 9.9------ 75.2 78.8----
2024-06-16 09:06 pmSSE 8.0 9.9------ 75.4 78.6----
2024-06-16 09:00 pmSSE 8.0 9.9----30.18+0.01- 78.4----
2024-06-16 08:54 pmSSE 8.0 9.9----30.18-- 78.4----
2024-06-16 08:48 pm S 7.0 8.9----30.18-- 78.4----
2024-06-16 08:42 pm S 6.0 8.9----30.18-- 78.4----
2024-06-16 08:36 pm S 7.0 9.9----30.18-- 78.6----
2024-06-16 08:30 pm S 6.0 8.9----30.18-- 78.6----
2024-06-16 08:24 pm S 6.0 9.9----30.18-- 78.6----
2024-06-16 08:18 pm S 7.0 11.1----30.18- 77.4 78.8----
2024-06-16 08:12 pm S 8.0 8.9----30.18- 77.7 79.3----
2024-06-16 08:06 pm S 7.0 8.9----30.18- 78.1 79.7----
2024-06-16 08:00 pm S 6.0 11.1----30.18+0.00 78.4 80.1----
2024-06-16 07:54 pm S 8.0 9.9----30.18- 78.6 80.1----
2024-06-16 07:48 pmSSE 7.0 11.1----30.18-- 80.2----
2024-06-16 07:42 pm S 7.0 12.0----30.18- 79.3 80.2----
2024-06-16 07:36 pm S 8.9 12.0----30.18- 79.5 80.4----
2024-06-16 07:30 pm S 5.1 8.0----30.18- 80.1 80.4----
2024-06-16 07:24 pm S 7.0 12.0----30.18- 79.7 80.6----
2024-06-16 07:18 pm S 7.0 9.9----30.18- 80.1 80.8----
2024-06-16 07:00 pm S 8.0 11.1----30.18+0.00- 81.0----
2024-06-16 06:54 pmSSW 7.0 13.0----30.18-- 81.0----
2024-06-16 06:48 pmSSW 8.0 13.0----30.18- 80.6 81.0----
2024-06-16 06:42 pm S 8.9 15.0----30.18- 80.6 81.0----
2024-06-16 06:36 pm S 8.9 11.1----30.18- 80.8 81.0----
2024-06-16 06:30 pm S 8.0 12.0------ 81.1 81.0----
2024-06-16 06:24 pm S 8.9 14.0------ 81.1 80.8----
2024-06-16 06:18 pmSSW 8.9 14.0----30.17- 81.3 80.8----
2024-06-16 06:12 pm S 9.9 12.0----30.17- 81.1 81.0----
2024-06-16 06:06 pmSSW 7.0 14.0----30.17- 81.9 81.0----
2024-06-16 06:00 pmSSW 11.1 14.0----30.17-0.04 81.7 81.0----
2024-06-16 05:54 pm S 8.9 14.0----30.17- 82.0 80.8----
2024-06-16 05:48 pmSSW 11.1 15.0----30.17-------
2024-06-16 05:42 pmSSW 8.9 11.1----30.17-------
2024-06-16 05:36 pm SW 8.0 12.0----30.17-------
2024-06-16 05:30 pm SW 6.0 9.9----30.17- 82.4 80.6----
2024-06-16 05:24 pmWSW 2.9 5.1----30.18- 83.1 80.8----
2024-06-16 05:18 pmNNE 1.9 5.1----30.18-- 80.6----
2024-06-16 05:12 pmENE 1.9 4.1----30.18-- 79.7----
2024-06-16 05:06 pm NE 1.9 5.1----30.18-- 79.3----
2024-06-16 05:00 pmESE 2.9 6.0----30.18-0.03 84.0 79.2----
2024-06-16 04:54 pmESE 4.1 6.0----30.18- 83.3 79.2----
2024-06-16 04:48 pm N 1.0 2.9----30.18-- 79.2----
2024-06-16 04:42 pm NW 2.9 7.0----30.19-- 79.2----
2024-06-16 04:36 pm N 2.9 6.0----30.18-- 79.3----
2024-06-16 04:30 pm- 0.0 1.9----30.19- 84.0 79.5----
2024-06-16 04:24 pmWNW 1.0 9.9----30.19- 82.8 79.9----
2024-06-16 04:18 pm S 7.0 9.9----30.19- 83.1 79.7----
2024-06-16 04:12 pm E 4.1 5.1----30.19- 83.7 79.7----
2024-06-16 04:06 pmESE 2.9 5.1----30.19- 84.6 79.9----
2024-06-16 04:00 pm SE 4.1 7.0----30.19-0.04 83.8 79.9----
2024-06-16 03:54 pm SE 5.1 8.0----30.19- 83.8 79.7----
2024-06-16 03:48 pm E 1.9 2.9----30.19- 83.3 79.7----
2024-06-16 03:42 pm- 0.0 4.1----30.19- 82.8 79.7----
2024-06-16 03:36 pm E 2.9 4.1----30.19- 82.2 79.7----
2024-06-16 03:30 pmESE 1.9 2.9----30.19-- 79.9----
2024-06-16 03:24 pm- 0.0 1.0----30.19-- 80.2----
2024-06-16 03:18 pm- 0.0 1.9----30.19- 82.8 80.1----
2024-06-16 03:12 pmESE 1.0 1.9----30.20- 82.2 79.7----
2024-06-16 03:06 pmENE 1.0 2.9----30.20- 81.9 79.2----
2024-06-16 03:00 pmENE 1.9 7.0----30.20-0.03- 78.6----
2024-06-16 02:54 pm E 4.1 6.0----30.20-- 78.6----
2024-06-16 02:48 pm E 2.9 5.1----30.20-- 78.4----
2024-06-16 02:42 pm S 4.1 6.0----30.20-- 78.4----
2024-06-16 02:36 pmESE 4.1 5.1----30.20-- 78.4----
2024-06-16 02:30 pm SE 6.0 8.9----30.20- 82.0 78.6----
2024-06-16 02:24 pm SE 4.1 7.0----30.21- 82.2 78.8----
2024-06-16 02:18 pm SE 5.1 6.0----30.21- 81.9 78.8----
2024-06-16 02:12 pmESE 1.9 8.0----30.21- 82.0 78.4----
2024-06-16 02:06 pmESE 5.1 7.0----30.21- 81.0 78.4----
2024-06-16 02:00 pm SE 6.0 7.0----30.21-0.02 81.1 78.3----
2024-06-16 01:54 pmESE 4.1 5.1----30.21- 81.1 78.1----
2024-06-16 01:48 pmENE 1.9 4.1----30.22- 81.0 78.1----
2024-06-16 01:42 pm E 5.1 6.0----30.22- 80.6 78.1----
2024-06-16 01:36 pm E 4.1 5.1----30.22- 81.1 78.3----
2024-06-16 01:30 pm NE 5.1 6.0----30.22- 80.8 78.3----
2024-06-16 01:24 pm E 5.1 7.0----30.22- 80.4 78.1----
2024-06-16 01:18 pm E 5.1 6.0----30.22- 80.6 78.1----
2024-06-16 01:12 pmENE 4.1 6.0----30.22- 80.6 78.1----
2024-06-16 01:06 pmENE 5.1 6.0----30.22- 80.4 78.1----
2024-06-16 01:00 pm E 5.1 7.0----30.22+0.00 80.4 78.1----
2024-06-16 12:54 pm E 6.0 7.0----30.22- 79.9 78.1----
2024-06-16 12:48 pm E 5.1 6.0----30.23-- 78.1----
2024-06-16 12:42 pmENE 4.1 6.0----30.23-- 77.9----
2024-06-16 12:36 pmENE 4.1 5.1----30.23-- 77.9----
2024-06-16 12:30 pmENE 2.9 5.1----30.23-- 77.9----
2024-06-16 12:24 pm E 2.9 5.1----30.23-- 77.9----
2024-06-16 12:18 pmENE 2.9 4.1----30.23-- 77.9----
2024-06-16 12:12 pm NE 2.9 4.1----30.23- 79.7-----
2024-06-16 12:06 pmENE 4.1 5.1----30.23- 79.7-----
2024-06-16 12:00 pm E 2.9 4.1----30.23+0.01 79.5 77.9----
2024-06-16 11:54 amENE 2.9 2.9----30.23- 79.2 77.9----
2024-06-16 11:48 amENE 2.9 2.9----30.23-- 77.9----
2024-06-16 11:42 am NE 2.9 4.1----30.23-- 77.9----
2024-06-16 11:36 amENE 2.9 4.1----30.23-- 77.9----
2024-06-16 11:30 amENE 2.9 2.9----30.24- 78.8 77.9----
2024-06-16 11:24 amENE 2.9 2.9----30.23- 78.6 77.9----
2024-06-16 11:18 amENE 2.9 4.1----30.23-- 77.9----
2024-06-16 11:12 amENE 2.9 4.1----30.23-- 78.1----
2024-06-16 11:06 amENE 2.9 4.1----30.23-- 78.1----
2024-06-16 11:00 amENE 1.9 4.1----30.23+0.02 77.9 78.1----
2024-06-16 10:54 amENE 1.9 2.9----30.23- 78.1 78.1----
2024-06-16 10:48 am E 1.9 4.1----30.23-- 78.1----
2024-06-16 10:42 am E 1.9 4.1----30.23-- 77.9----
2024-06-16 10:36 am E 1.0 2.9----30.23-- 77.9----
2024-06-16 10:30 am-------30.23-- 77.9----
2024-06-16 10:24 am-------30.23-- 77.9----
2024-06-16 10:18 am E 4.1 5.1----30.23- 76.8 77.9----
2024-06-16 10:12 amENE 4.1 4.1----30.23- 76.5 77.9----
2024-06-16 10:06 am E 2.9 4.1----30.22- 76.5 77.9----
2024-06-16 10:00 amESE 4.1 5.1----30.22+0.04- 77.9----
2024-06-16 09:54 am SE 4.1 6.0----30.22-- 77.9----
2024-06-16 09:48 amESE 5.1 6.0----30.22- 76.8 77.9----
2024-06-16 09:42 am E 1.9 2.9----30.22- 76.3 77.9----
2024-06-16 09:36 am E 1.9 4.1----30.22- 76.1 77.9----
2024-06-16 09:30 amENE 4.1 5.1----30.22- 75.7 77.9----
2024-06-16 09:24 am E 1.9 5.1----30.22- 75.6 77.9----
2024-06-16 09:18 amENE 4.1 5.1----30.22-- 77.9----
2024-06-16 09:12 amENE 2.9 5.1----30.22-- 77.9----
2024-06-16 09:06 amENE 2.9 5.1----30.22-- 77.9----
2024-06-16 09:00 am E 4.1 4.1----30.22+0.06 75.0 77.9----
2024-06-16 08:54 amESE 1.9 2.9----30.22- 75.7 78.1----
2024-06-16 08:48 amESE 2.9 4.1----30.22- 75.2 78.1----
2024-06-16 08:42 amESE 2.9 4.1----30.22- 74.5 78.1----
2024-06-16 08:36 amENE 2.9 4.1----30.22- 74.3 78.1----
2024-06-16 08:30 am E 2.9 4.1----30.22- 73.8 78.1----
2024-06-16 08:24 amENE 2.9 5.1----30.22- 73.9 78.1----
2024-06-16 08:18 am-------30.21- 73.8 78.1----
2024-06-16 08:12 am-------30.21- 73.8 78.1----
2024-06-16 08:06 am-------30.21- 73.8 78.1----
2024-06-16 08:00 am E 2.9 2.9----30.21+0.05 73.4 78.1----
2024-06-16 07:54 am E 1.9 1.9----30.20- 73.9 78.1----
2024-06-16 07:48 am E 1.9 2.9----30.20- 73.2 78.1----
2024-06-16 07:42 am E 1.9 4.1----30.20- 72.9 78.1----
2024-06-16 07:36 am E 2.9 4.1----30.20- 72.5 78.1----
2024-06-16 07:30 amESE 4.1 5.1----30.20- 72.7 78.1----
2024-06-16 07:24 amESE 4.1 5.1----30.20- 72.5 78.1----
2024-06-16 07:18 amESE 2.9 5.1----30.19-- 78.1----
2024-06-16 07:12 amESE 2.9 4.1----30.19-- 78.1----
2024-06-16 07:06 amESE 1.9 2.9----30.19-- 78.1----
2024-06-16 07:00 am E 1.9 2.9----30.19-- 78.1----
2024-06-16 06:54 am E 1.9 2.9----30.19-- 78.1----
2024-06-16 06:48 am E 1.9 2.9----30.18-- 78.1----
2024-06-16 06:42 amESE 1.0 1.9----30.18-- 78.1----
2024-06-16 06:36 amSSE 1.0 1.9----30.17-- 78.1----
2024-06-16 06:30 am SE 1.0 1.9----30.17-- 78.1----
2024-06-16 06:24 am SE 1.0 2.9----30.17-- 78.1----
2024-06-16 06:18 amSSE 1.0 2.9----30.17- 70.5 78.1----
2024-06-16 06:12 amSSE 1.9 2.9----30.17- 69.8 78.1----
2024-06-16 06:06 am SE 1.9 2.9----30.16- 69.4 78.1----
2024-06-16 06:00 amSSE 1.0 1.9----30.16+0.02- 78.1----
2024-06-16 05:54 am S 1.0 1.0----30.16-- 78.3----
2024-06-16 05:48 am- 0.0 0.0----30.16- 68.7 78.3----
2024-06-16 05:42 am- 0.0 1.0----30.16- 69.1 78.3----
2024-06-16 05:36 am- 0.0 1.0----30.16- 68.5 78.3----
2024-06-16 05:30 am- 0.0 1.9----30.16- 68.5 78.3----
2024-06-16 05:24 am SW 1.9 1.9----30.16- 68.0 78.1----
2024-06-16 05:18 amSSW 1.0 1.9----30.16-- 78.1----
2024-06-16 05:12 am- 0.0 0.0----30.15-- 78.1----
2024-06-16 05:06 am- 0.0 0.0----30.15-- 78.1----
2024-06-16 05:00 am- 0.0 0.0----30.15+0.02- 78.1----
2024-06-16 04:54 am- 0.0 0.0----30.15-- 78.1----